[[{"header":{"parameterUnit":"m.s-1","parameterCategory":1,"la1":30.2991,"la2":30.254,"lo1":-89.0895,"lo2":-89.0444,"dy":0.0017,"dx":0.0017,"nx":28,"ny":28,"refTime":"2024-05-29T21:00:00:Z","depth":0,"parameterNumber":2,"parameterNumberName":"U-component_of_WINDS"},"data":[0,0,0,0,0,0,0,0,0,0,0,0,0,0,0,0,0,0,0,0,0,0,0,0,0,0,0,0,0,0,0,0,0,0,0,0,0,0,0,0,0,0,0,0,0,0,0,0,0,0,0,0,0,0,0,0,0,0,-4.7647,-4.7647,0,-4.761,-4.7609,-4.7609,-4.7536,-4.7535,-4.7533,-4.7532,-4.7493,-4.7493,-4.7494,0,0,0,0,0,0,0,0,0,0,0,0,0,-4.7658,-4.7658,-4.7647,-4.7647,-4.7646,-4.761,-4.7609,-4.7609,-4.7536,-4.7535,-4.7533,-4.7531,-4.7493,-4.7493,-4.7494,0,0,0,0,0,0,0,0,0,0,0,0,0,-4.764,-4.7658,-4.7647,-4.7606,-4.7602,-4.761,-4.7609,-4.7608,-4.7537,-4.7534,-4.7532,-4.753,-4.7493,-4.7493,-4.7494,-4.7539,0,0,-4.7495,-4.7495,0,0,0,0,0,0,0,0,-4.7641,-4.764,-4.7612,-4.7609,-4.7604,-4.7575,-4.7599,-4.7585,-4.7537,-4.7561,-4.7532,-4.7529,-4.7522,-4.752,-4.7518,-4.7537,-4.7535,-4.7495,-4.7495,-4.7495,-4.7496,0,0,0,0,0,0,0,-4.7642,-4.7641,-4.7632,-4.7612,-4.7607,-4.759,-4.7585,-4.7596,-4.7554,-4.7559,-4.7554,-4.755,-4.7519,-4.7517,-4.7516,-4.7535,-4.7495,-4.7495,-4.7496,-4.7496,-4.7591,-4.7593,0,0,0,0,0,0,-4.765,-4.7642,-4.7633,-4.7631,-4.7618,-4.7591,-4.7586,-4.7587,-4.7554,-4.7547,-4.7552,-4.7547,-4.7518,-4.7516,-4.7514,-4.7565,-4.7495,-4.7496,-4.7496,-4.7589,-4.7592,-4.7594,0,0,0,0,0,0,-4.765,-4.765,-4.7635,-4.7635,-4.7632,-4.7593,-4.7595,-4.7587,-4.7585,-4.7549,-4.7541,-4.7557,-4.7516,-4.7514,-4.7534,-4.7563,-4.7496,-4.7496,-4.7586,-4.759,-4.7593,-4.7667,0,0,0,0,0,0,-4.7651,-4.765,-4.7666,-4.7636,-4.7632,-4.7655,-4.7597,-4.7588,-4.7586,-4.7579,-4.7552,-4.7545,-4.7514,-4.7533,-4.7534,-4.7562,-4.7497,-4.7583,-4.7588,-4.7592,-4.7662,-4.7673,-4.7682,0,0,0,0,0,-4.7651,-4.7689,-4.7668,-4.7667,-4.7652,-4.7656,-4.7654,-4.7618,-4.7589,-4.7605,-4.7582,-4.7546,-4.756,-4.7536,-4.7536,-4.7565,-4.7581,-4.7586,-4.7591,-4.7658,-4.7671,-4.7682,0,0,0,0,0,0,-4.7722,-4.7684,-4.766,-4.7689,-4.7677,-4.7644,-4.7663,-4.7633,-4.7628,-4.7622,-4.7577,-4.7572,-4.7598,-4.7584,-4.7557,-4.7608,-4.7565,-4.7571,-4.7615,-4.7628,-4.7638,-4.7639,-4.7497,0,0,0,0,0,-4.7742,-4.7748,-4.7714,-4.7743,-4.7738,-4.7702,-4.7703,-4.7676,-4.7662,-4.7656,-4.7634,-4.7622,-4.7623,-4.7625,-4.7625,-4.7661,-4.7654,-4.7681,-4.7691,-4.77,-4.7704,-4.7722,-4.7734,-4.7611,-4.7611,-4.7611,0,0,-4.7781,-4.7761,-4.7767,-4.7757,-4.7744,-4.7752,-4.7698,-4.7709,-4.7714,-4.7657,-4.7674,-4.7659,-4.7642,-4.767,-4.7682,-4.7659,-4.7737,-4.7706,-4.7713,-4.7713,-4.7729,-4.7741,-4.7751,-4.7614,-4.7614,-4.7613,0,0,-4.7856,-4.7842,-4.7864,-4.7853,-4.7835,-4.7811,-4.7817,-4.779,-4.7777,-4.7794,-4.7752,-4.7759,-4.7762,-4.7752,-4.7748,-4.7823,-4.7789,-4.7824,-4.7875,-4.7894,-4.7904,-4.7912,-4.7938,-4.7948,-4.7829,-4.7829,-4.7829,0,-4.7906,-4.7916,-4.7879,-4.7892,-4.7889,-4.784,-4.7862,-4.7854,-4.7837,-4.7836,-4.7812,-4.7816,-4.7801,-4.7827,-4.7845,-4.7844,-4.7849,-4.7825,-4.7905,-4.7913,-4.7921,-4.7945,-4.7955,-4.7834,-4.7833,-4.7833,-4.7832,0,-4.7979,-4.7988,-4.8008,-4.7993,-4.7993,-4.8011,-4.7977,-4.7981,-4.7956,-4.7935,-4.7954,-4.7935,-4.793,-4.7935,-4.791,-4.7957,-4.7944,-4.7914,-4.7869,-4.7937,-4.7959,-4.7968,-4.784,-4.7838,-4.7837,-4.7836,0,0,-4.8094,-4.8061,-4.8069,-4.8062,-4.804,-4.8046,-4.8063,-4.8058,-4.8063,-4.8054,-4.8067,-4.8073,-4.8045,-4.804,-4.8014,-4.8031,-4.8091,-4.7998,-4.7997,-4.8015,-4.8142,-4.8163,-4.8175,-4.807,-4.8072,-4.8073,-4.8143,0,-4.8163,-4.8189,-4.8157,-4.819,-4.8197,-4.8152,-4.8167,-4.8155,-4.8138,-4.8141,-4.8122,-4.8126,-4.809,-4.8087,-4.8101,-4.808,-4.8115,-4.8075,-4.8081,-4.8081,-4.8084,-4.8186,-4.8209,-4.8275,-4.8151,-4.8153,-4.8154,0,-4.8246,-4.8241,-4.8275,-4.8252,-4.8254,-4.8268,-4.8262,-4.8267,-4.8254,-4.824,-4.8236,-4.8205,-4.8221,-4.8181,-4.8201,-4.8175,-4.8176,-4.8167,-4.8168,-4.8165,-4.812,-4.8185,-4.8295,-4.8305,-4.8167,-4.8166,-4.8165,0,-4.8325,-4.8328,-4.8348,-4.8344,-4.8318,-4.8329,-4.8319,-4.8304,-4.8304,-4.83,-4.83,-4.8298,-4.8296,-4.8295,-4.8266,-4.8239,-4.829,-4.8247,-4.8278,-4.8279,-4.8289,-4.8288,-4.84,-4.8293,-4.8293,-4.8293,-4.8293,0,-4.8404,-4.8426,-4.8384,-4.8396,-4.842,-4.8385,-4.8409,-4.8395,-4.8382,-4.8392,-4.8354,-4.8363,-4.8324,-4.833,-4.8307,-4.8328,-4.8328,-4.8317,-4.831,-4.8319,-4.832,-4.8317,-4.8311,-4.8296,-4.8295,-4.8295,-4.8294,0,-4.8495,-4.8468,-4.8487,-4.8462,-4.8456,-4.8475,-4.8454,-4.8465,-4.8446,-4.8458,-4.8459,-4.8429,-4.8434,-4.8405,-4.8405,-4.839,-4.8421,-4.8408,-4.8425,-4.842,-4.8453,-4.845,-4.8564,-4.8578,-4.8465,-4.8466,-4.8467,0,-4.8546,-4.8562,-4.8539,-4.8543,-4.8535,-4.8541,-4.8541,-4.8508,-4.851,-4.8498,-4.851,-4.8513,-4.8512,-4.8523,-4.8501,-4.8501,-4.8486,-4.8526,-4.8485,-4.8494,-4.8485,-4.8484,-4.8485,-4.8534,-4.8535,-4.8537,-4.8537,0,-4.8638,-4.8625,-4.8626,-4.8624,-4.8626,-4.8623,-4.8617,-4.8622,-4.8586,-4.8591,-4.8596,-4.8596,-4.8596,-4.8599,-4.8595,-4.8585,-4.8555,-4.8551,-4.8558,-4.8566,-4.8575,-4.857,-4.8447,-4.8548,-4.8547,-4.8546,-4.8545,-4.8545,-4.871,-4.8722,-4.8709,-4.8712,-4.8705,-4.8701,-4.871,-4.8693,-4.8696,-4.8694,-4.8675,-4.8684,-4.8672,-4.8664,-4.8657,-4.8664,-4.8645,-4.8655,-4.8657,-4.866,-4.8665,-4.8577,-4.8664,-4.8663,-4.8663,-4.8663,-4.8662,0,-4.88,-4.8789,-4.8793,-4.8787,-4.879,-4.8764,-4.8756,-4.8761,-4.8769,-4.8761,-4.8762,-4.8768,-4.8771,-4.8751,-4.8752,-4.8761,-4.8748,-4.8762,-4.876,-4.8758,-4.8683,-4.8676,-4.8773,-4.8773,-4.8773,-4.8773,-4.8773,-4.8773,-4.8847,-4.8866,-4.8851,-4.8868,-4.8857,-4.8865,-4.8864,-4.886,-4.8853,-4.8862,-4.8865,-4.8852,-4.8839,-4.8839,-4.8841,-4.8835,-4.8836,-4.8855,-4.8845,-4.8774,-4.8763,-4.8753,-4.8746,-4.8856,-4.8856,-4.8919,-4.892,-4.892]},{"header":{"parameterUnit":"m.s-1","parameterCategory":1,"la1":30.2991,"la2":30.254,"lo1":-89.0895,"lo2":-89.0444,"dy":0.0017,"dx":0.0017,"nx":28,"ny":28,"refTime":"2024-05-29T21:00:00:Z","depth":0,"parameterNumber":3,"parameterNumberName":"V-component_of_WINDS"},"data":[0,0,0,0,0,0,0,0,0,0,0,0,0,0,0,0,0,0,0,0,0,0,0,0,0,0,0,0,0,0,0,0,0,0,0,0,0,0,0,0,0,0,0,0,0,0,0,0,0,0,0,0,0,0,0,0,0,0,3.1093,3.1093,0,3.1117,3.1117,3.1118,3.1165,3.1166,3.1167,3.1168,3.1188,3.1188,3.1188,0,0,0,0,0,0,0,0,0,0,0,0,0,3.1083,3.1083,3.1092,3.1093,3.1093,3.1117,3.1117,3.1118,3.1165,3.1166,3.1167,3.1169,3.1188,3.1188,3.1187,0,0,0,0,0,0,0,0,0,0,0,0,0,3.1095,3.1083,3.1092,3.112,3.1123,3.1117,3.1117,3.1118,3.1165,3.1166,3.1168,3.1169,3.1188,3.1188,3.1187,3.1156,0,0,3.1186,3.1186,0,0,0,0,0,0,0,0,3.1095,3.1096,3.1116,3.1118,3.1121,3.114,3.1122,3.113,3.1165,3.1149,3.1168,3.117,3.1171,3.1172,3.1173,3.1156,3.1157,3.1186,3.1185,3.1185,3.1185,0,0,0,0,0,0,0,3.1094,3.1095,3.1102,3.1116,3.1119,3.113,3.1133,3.1123,3.1151,3.115,3.1154,3.1156,3.1172,3.1173,3.1174,3.1158,3.1186,3.1185,3.1185,3.1185,3.1117,3.1116,0,0,0,0,0,0,3.1089,3.1094,3.1101,3.1103,3.1111,3.1129,3.1132,3.1132,3.1151,3.1156,3.1155,3.1158,3.1174,3.1174,3.1175,3.1139,3.1185,3.1185,3.1184,3.1119,3.1117,3.1116,0,0,0,0,0,0,3.1089,3.109,3.11,3.1099,3.1102,3.1127,3.1127,3.1132,3.1133,3.1155,3.116,3.1151,3.1175,3.1175,3.1161,3.1141,3.1184,3.1184,3.1121,3.1118,3.1116,3.1068,0,0,0,0,0,0,3.1089,3.1089,3.1078,3.1099,3.1101,3.1087,3.1125,3.1131,3.1133,3.1137,3.1153,3.1157,3.1176,3.1161,3.116,3.1141,3.1184,3.1123,3.112,3.1117,3.1071,3.1064,3.1058,0,0,0,0,0,3.1088,3.1062,3.1077,3.1078,3.1088,3.1086,3.1087,3.1111,3.1131,3.1119,3.1134,3.1156,3.1143,3.1159,3.1158,3.1139,3.1124,3.112,3.1117,3.1074,3.1066,3.1059,0,0,0,0,0,0,3.1036,3.1065,3.1082,3.1063,3.1072,3.1094,3.108,3.1101,3.1103,3.1107,3.1135,3.1138,3.112,3.1128,3.1145,3.1109,3.1137,3.1133,3.1105,3.1097,3.109,3.1089,3.1183,0,0,0,0,0,3.1023,3.102,3.1045,3.1025,3.1029,3.1053,3.1053,3.1071,3.1081,3.1084,3.1097,3.1105,3.1103,3.11,3.1099,3.1073,3.1077,3.1059,3.1053,3.1047,3.1043,3.1031,3.1024,3.1105,3.1105,3.1105,0,0,3.0995,3.101,3.1006,3.1015,3.1024,3.1019,3.1056,3.1049,3.1045,3.1082,3.107,3.108,3.109,3.107,3.1061,3.1076,3.1022,3.1043,3.1038,3.1038,3.1027,3.1019,3.1012,3.1102,3.1103,3.1103,0,0,3.0941,3.0952,3.0937,3.0946,3.096,3.0977,3.0974,3.0993,3.1002,3.099,3.1019,3.1014,3.1009,3.1016,3.1018,3.0968,3.0989,3.0967,3.0932,3.092,3.0914,3.0908,3.0891,3.0884,3.0963,3.0963,3.0963,0,3.0903,3.0898,3.0927,3.0919,3.0922,3.0957,3.0942,3.0949,3.0961,3.0962,3.0978,3.0974,3.0983,3.0966,3.0954,3.0954,3.0951,3.0965,3.0913,3.0907,3.0903,3.0886,3.0879,3.096,3.0961,3.0961,3.0961,0,3.0852,3.0848,3.0834,3.0847,3.0849,3.0837,3.0863,3.0861,3.0879,3.0894,3.0882,3.0894,3.0897,3.0894,3.0911,3.0879,3.0888,3.0908,3.0936,3.0892,3.0877,3.0871,3.0957,3.0958,3.0958,3.0959,0,0,3.0765,3.0795,3.079,3.0797,3.0816,3.0812,3.0802,3.0807,3.0805,3.0812,3.0804,3.08,3.082,3.0822,3.084,3.0829,3.079,3.0851,3.0852,3.0839,3.0756,3.074,3.0733,3.0804,3.0803,3.0802,3.0755,0,3.0715,3.0701,3.0727,3.0706,3.0703,3.0738,3.0729,3.0739,3.0753,3.0751,3.0766,3.0763,3.0789,3.0791,3.0782,3.0797,3.0773,3.08,3.0796,3.0795,3.0792,3.0725,3.0708,3.0663,3.0749,3.0748,3.0748,0,3.0655,3.0661,3.0641,3.0662,3.0662,3.0654,3.0661,3.0659,3.0671,3.0682,3.0686,3.0708,3.0699,3.0727,3.0714,3.0732,3.0732,3.0739,3.0738,3.0738,3.0769,3.0723,3.065,3.0643,3.0739,3.0739,3.074,0,3.0594,3.0597,3.0586,3.0591,3.0615,3.0609,3.0618,3.0632,3.0634,3.0639,3.0641,3.0644,3.0646,3.0648,3.067,3.0688,3.0655,3.0684,3.0663,3.0662,3.0654,3.0654,3.0579,3.0654,3.0654,3.0654,3.0654,0,3.0535,3.0521,3.056,3.0552,3.0538,3.0568,3.0552,3.0565,3.0577,3.0572,3.0602,3.0597,3.0626,3.0624,3.0641,3.0628,3.0629,3.0637,3.0642,3.0634,3.0633,3.0634,3.0638,3.0652,3.0653,3.0653,3.0653,0,3.0465,3.049,3.048,3.0504,3.051,3.0499,3.0519,3.0513,3.053,3.0524,3.0524,3.0549,3.0548,3.0571,3.0574,3.0585,3.0565,3.0575,3.0561,3.0564,3.0542,3.0544,3.0465,3.0456,3.0536,3.0535,3.0535,0,3.0426,3.0416,3.0441,3.0441,3.045,3.0449,3.0451,3.048,3.0481,3.0495,3.0487,3.0489,3.0492,3.0489,3.0507,3.0509,3.052,3.0492,3.052,3.0514,3.052,3.052,3.0519,3.0486,3.0485,3.0484,3.0483,0,3.0354,3.0367,3.0371,3.0378,3.0381,3.0388,3.0397,3.0394,3.0426,3.0425,3.0426,3.0429,3.0433,3.0434,3.0441,3.0449,3.0471,3.0475,3.047,3.0462,3.0455,3.0459,3.0545,3.0476,3.0477,3.0477,3.0478,3.0478,3.0298,3.0292,3.0309,3.0312,3.0322,3.033,3.0326,3.0343,3.0344,3.0351,3.0368,3.0366,3.0378,3.039,3.0396,3.0394,3.0408,3.0401,3.0399,3.0397,3.0393,3.0455,3.0396,3.0396,3.0396,3.0396,3.0396,0,3.0229,3.0242,3.0244,3.0257,3.0259,3.0281,3.0292,3.0292,3.0291,3.0302,3.0305,3.0306,3.0307,3.0326,3.033,3.0325,3.0335,3.0325,3.0325,3.0327,3.038,3.0384,3.0317,3.0317,3.0317,3.0317,3.0317,3.0317,3.0193,3.0184,3.0199,3.0195,3.0208,3.0208,3.0212,3.0219,3.0228,3.0229,3.0231,3.0244,3.0258,3.0263,3.0266,3.0271,3.0271,3.0258,3.0266,3.0316,3.0323,3.0331,3.0334,3.0257,3.0257,3.0213,3.0213,3.0213]}]]